CCM22D LFKJ-LFML

Flight info

Callsign CCM22D
Flight time N/A
Altitude 24000
Route TINOT
Aircraft A320/M-SDE3FGHIRWY/LB1

Departure

Time 2026-04-28 19:06
Airport Ajaccio Napoléon Bonaparte airport (LFKJ)

Arrival

Time N/A
Airport Marseille Provence Airport (LFML)
Time Latitude Longitude Altitude Speed Heading
2026-04-28 18:08 41.92151 8.79670 24 ft 0 kts 316°
2026-04-28 18:53 41.92171 8.79676 23 ft 10 kts 21°
2026-04-28 18:53 41.92180 8.79689 21 ft 0 kts 54°
2026-04-28 18:53 41.92220 8.79773 21 ft 25 kts 57°
2026-04-28 18:53 41.92394 8.79920 22 ft 20 kts 23°
2026-04-28 18:54 41.92537 8.80001 23 ft 2 kts 25°
2026-04-28 18:54 41.92608 8.80045 23 ft 22 kts 24°
2026-04-28 18:54 41.92789 8.80180 22 ft 6 kts 39°
2026-04-28 18:54 41.92848 8.80253 22 ft 11 kts 43°
2026-04-28 18:55 41.92885 8.80302 22 ft 0 kts 44°
2026-04-28 18:55 41.92888 8.80306 22 ft 0 kts 44°
2026-04-28 18:56 41.92889 8.80308 22 ft 0 kts 44°
2026-04-28 18:56 41.92918 8.80346 22 ft 17 kts 44°
2026-04-28 18:56 41.92935 8.80368 22 ft 0 kts 44°
2026-04-28 18:57 41.92952 8.80398 23 ft 9 kts 56°
2026-04-28 18:57 41.92957 8.80409 23 ft 1 kts 62°
2026-04-28 18:59 41.92964 8.80454 23 ft 0 kts 85°
2026-04-28 19:03 41.92960 8.80495 24 ft 14 kts 104°
2026-04-28 19:03 41.92953 8.80528 25 ft 17 kts 107°
2026-04-28 19:04 41.93034 8.80641 26 ft 6 kts 205°
2026-04-28 19:04 41.93033 8.80640 26 ft 0 kts 205°
2026-04-28 19:05 41.93031 8.80639 26 ft 5 kts 205°
2026-04-28 19:06 41.92774 8.80474 23 ft 80 kts 205°
2026-04-28 19:06 41.92337 8.80200 22 ft 121 kts 205°
2026-04-28 19:06 41.91318 8.79552 127 ft 164 kts 204°
2026-04-28 19:06 41.90168 8.78825 866 ft 165 kts 207°
2026-04-28 19:07 41.89112 8.78142 1640 ft 163 kts 206°
2026-04-28 19:07 41.88110 8.77309 2107 ft 179 kts 229°
2026-04-28 19:07 41.87644 8.75615 2494 ft 200 kts 273°
2026-04-28 19:07 41.88170 8.73839 2799 ft 227 kts 308°
2026-04-28 19:08 41.89387 8.71976 3282 ft 254 kts 311°
2026-04-28 19:08 41.90572 8.70173 3670 ft 278 kts 309°
2026-04-28 19:08 41.91801 8.68180 4688 ft 278 kts 308°
2026-04-28 19:08 41.92827 8.66449 5470 ft 281 kts 306°
2026-04-28 19:09 41.94073 8.64290 6404 ft 285 kts 305°
2026-04-28 19:09 41.95256 8.62204 7266 ft 287 kts 305°
2026-04-28 19:09 41.96558 8.59896 8237 ft 289 kts 305°
2026-04-28 19:09 41.97771 8.57751 9118 ft 291 kts 305°
2026-04-28 19:10 41.98697 8.56114 9790 ft 293 kts 305°
2026-04-28 19:10 42.00285 8.53310 10475 ft 311 kts 305°
2026-04-28 19:10 42.01665 8.50868 10711 ft 335 kts 305°
2026-04-28 19:10 42.03096 8.48333 10997 ft 353 kts 305°
2026-04-28 19:11 42.04621 8.45632 11626 ft 360 kts 305°
2026-04-28 19:11 42.06153 8.42923 12342 ft 364 kts 305°
2026-04-28 19:11 42.07189 8.41093 12831 ft 366 kts 305°
2026-04-28 19:11 42.09262 8.37420 13791 ft 371 kts 305°
2026-04-28 19:12 42.10825 8.34648 14445 ft 373 kts 305°
2026-04-28 19:12 42.12417 8.31826 15100 ft 376 kts 305°
2026-04-28 19:12 42.13479 8.29937 15522 ft 378 kts 305°
2026-04-28 19:12 42.15586 8.26180 16358 ft 382 kts 305°
2026-04-28 19:13 42.17197 8.23304 16977 ft 385 kts 305°
2026-04-28 19:13 42.18813 8.20420 17595 ft 388 kts 305°
2026-04-28 19:13 42.19907 8.18471 18011 ft 391 kts 305°
2026-04-28 19:13 42.21567 8.15506 18589 ft 394 kts 305°
2026-04-28 19:14 42.23189 8.12605 19200 ft 396 kts 306°
2026-04-28 19:14 42.25408 8.08637 19550 ft 402 kts 305°
2026-04-28 19:14 42.26548 8.06599 19967 ft 403 kts 305°
2026-04-28 19:14 42.28239 8.03575 20526 ft 405 kts 305°
2026-04-28 19:15 42.30076 8.00688 21038 ft 410 kts 314°
2026-04-28 19:15 42.32301 7.98244 21536 ft 416 kts 324°
2026-04-28 19:15 42.34851 7.96366 22027 ft 422 kts 334°
2026-04-28 19:15 42.36685 7.95429 22310 ft 426 kts 338°
2026-04-28 19:16 42.40430 7.93622 22901 ft 431 kts 337°
2026-04-28 19:16 42.43273 7.92246 23353 ft 434 kts 337°
2026-04-28 19:16 42.46271 7.90788 23771 ft 437 kts 337°
2026-04-28 19:16 42.49014 7.89449 23967 ft 438 kts 337°
2026-04-28 19:17 42.51906 7.88030 24021 ft 446 kts 337°
2026-04-28 19:17 42.54853 7.86579 24015 ft 452 kts 337°
2026-04-28 19:17 42.57810 7.85128 24014 ft 453 kts 337°
2026-04-28 19:17 42.60775 7.83677 24019 ft 453 kts 337°
2026-04-28 19:18 42.63745 7.82222 24013 ft 453 kts 337°
2026-04-28 19:18 42.66711 7.80767 24016 ft 453 kts 337°
2026-04-28 19:18 42.69674 7.79312 24020 ft 453 kts 337°
2026-04-28 19:18 42.72644 7.77851 24018 ft 453 kts 337°
2026-04-28 19:19 42.75607 7.76392 24024 ft 453 kts 337°
2026-04-28 19:19 42.78571 7.74932 24020 ft 453 kts 337°
2026-04-28 19:19 42.81541 7.73468 24016 ft 453 kts 337°
2026-04-28 19:19 42.84490 7.72014 24014 ft 453 kts 337°
2026-04-28 19:20 42.87462 7.70546 24018 ft 453 kts 337°
2026-04-28 19:20 42.90430 7.69077 24016 ft 453 kts 337°
2026-04-28 19:20 42.93383 7.67613 24018 ft 452 kts 337°
2026-04-28 19:20 42.96343 7.66143 24018 ft 452 kts 337°
2026-04-28 19:21 42.99353 7.64646 24025 ft 452 kts 336°
2026-04-28 19:21 43.02259 7.63184 24025 ft 451 kts 335°
2026-04-28 19:21 43.05022 7.61221 24023 ft 446 kts 323°
2026-04-28 19:21 43.07393 7.58615 24029 ft 441 kts 312°
2026-04-28 19:22 43.09375 7.55400 24022 ft 436 kts 301°
2026-04-28 19:22 43.10428 7.52989 24020 ft 433 kts 294°
2026-04-28 19:22 43.11782 7.47873 24014 ft 428 kts 280°
2026-04-28 19:22 43.12292 7.43843 24013 ft 427 kts 277°
2026-04-28 19:23 43.12766 7.39854 23888 ft 424 kts 277°
2026-04-28 19:23 43.13248 7.35800 23876 ft 424 kts 277°
2026-04-28 19:23 43.13720 7.31828 23995 ft 428 kts 277°
2026-04-28 19:23 43.14199 7.27781 24027 ft 428 kts 277°
2026-04-28 19:24 43.14674 7.23757 24025 ft 428 kts 277°
2026-04-28 19:24 43.15148 7.19727 24027 ft 428 kts 277°
2026-04-28 19:24 43.15619 7.15702 24027 ft 428 kts 277°
2026-04-28 19:24 43.16087 7.11673 24026 ft 428 kts 277°
2026-04-28 19:25 43.16563 7.07589 24027 ft 428 kts 277°
2026-04-28 19:25 43.17032 7.03561 24027 ft 428 kts 277°
2026-04-28 19:25 43.17498 6.99533 24027 ft 428 kts 277°
2026-04-28 19:25 43.17963 6.95487 24030 ft 428 kts 276°
2026-04-28 19:26 43.18422 6.91472 24030 ft 428 kts 276°
2026-04-28 19:26 43.18884 6.87434 24033 ft 428 kts 276°
2026-04-28 19:26 43.19342 6.83407 24038 ft 428 kts 276°
2026-04-28 19:26 43.19798 6.79349 24032 ft 429 kts 276°
2026-04-28 19:27 43.20253 6.75289 24032 ft 429 kts 276°
2026-04-28 19:27 43.20706 6.71270 24030 ft 429 kts 276°
2026-04-28 19:27 43.21160 6.67230 24030 ft 429 kts 276°
2026-04-28 19:27 43.21619 6.63128 24030 ft 429 kts 276°
2026-04-28 19:28 43.21972 6.58951 23874 ft 428 kts 270°
2026-04-28 19:28 43.22034 6.54874 23645 ft 425 kts 269°
2026-04-28 19:28 43.22088 6.50887 23390 ft 424 kts 269°
2026-04-28 19:28 43.22146 6.46622 23097 ft 422 kts 269°
2026-04-28 19:29 43.22200 6.42774 22840 ft 422 kts 269°
2026-04-28 19:29 43.22236 6.40086 22666 ft 421 kts 269°
2026-04-28 19:29 43.22310 6.34704 21658 ft 420 kts 269°
2026-04-28 19:29 43.22350 6.31989 21065 ft 420 kts 269°
2026-04-28 19:30 43.22432 6.26576 19834 ft 421 kts 269°
2026-04-28 19:30 43.22472 6.23916 19196 ft 423 kts 269°
2026-04-28 19:30 43.22552 6.18486 17867 ft 414 kts 269°
2026-04-28 19:30 43.22607 6.14618 16829 ft 401 kts 269°
2026-04-28 19:31 43.22654 6.10795 15804 ft 391 kts 269°
2026-04-28 19:31 43.22687 6.07145 14844 ft 383 kts 269°
2026-04-28 19:31 43.22877 6.03467 13885 ft 379 kts 278°
2026-04-28 19:31 43.23252 6.01047 13166 ft 376 kts 284°
2026-04-28 19:32 43.24162 5.97704 12626 ft 374 kts 294°
2026-04-28 19:32 43.25432 5.94302 12352 ft 377 kts 296°
2026-04-28 19:32 43.26630 5.91099 12098 ft 375 kts 296°
2026-04-28 19:32 43.27625 5.88417 11887 ft 374 kts 296°
2026-04-28 19:33 43.29167 5.84252 11562 ft 373 kts 295°
2026-04-28 19:33 43.30358 5.81042 11305 ft 373 kts 295°
2026-04-28 19:33 43.31521 5.77919 11069 ft 373 kts 296°
2026-04-28 19:33 43.32700 5.74757 10820 ft 372 kts 296°
2026-04-28 19:34 43.33961 5.71368 10559 ft 371 kts 296°
2026-04-28 19:34 43.35043 5.68449 10348 ft 370 kts 296°
2026-04-28 19:34 43.36203 5.65313 10113 ft 368 kts 295°
2026-04-28 19:34 43.37356 5.62202 9905 ft 357 kts 295°
2026-04-28 19:35 43.38090 5.60223 9816 ft 343 kts 296°
2026-04-28 19:35 43.39467 5.56522 9628 ft 306 kts 296°
2026-04-28 19:35 43.40407 5.53995 9506 ft 296 kts 295°
2026-04-28 19:35 43.41344 5.51463 9372 ft 293 kts 296°
2026-04-28 19:36 43.42261 5.48981 9237 ft 292 kts 296°
2026-04-28 19:36 43.43033 5.46880 9131 ft 293 kts 293°
2026-04-28 19:36 43.43911 5.44480 9012 ft 296 kts 296°
2026-04-28 19:36 43.44973 5.42036 8856 ft 295 kts 298°